User: anonymous
Location: Albany
(35.0000°S, 118.0000°E)
Time: 18:09:33
(UTC-04:00)
Language:

SJ-6B - Orbit

View from above orbital plane
View from above orbital plane
View from above satellite
View from above satellite

Ground track
Ground track

The orbit data is extracted from the following two-line orbital elements,

1 28415U 04035C   14264.05377171  .00002176  00000-0  16321-3 0  2995
2 28415 097.7974 269.3037 0055265 267.1885 092.3014 15.02578735548149
Epoch (UTC): 21 September 2014 01:17:25
Eccentricity: 0.0055265
inclination: 97.7974°
perigee height: 520 km
apogee height: 597 km
right ascension of ascending node: 269.3037°
argument of perigee: 267.1885°
revolutions per day: 15.02578735
mean anomaly at epoch: 92.3014°
orbit number at epoch: 54814

The dashed part of the orbit path shows where the satellite is in the earth's shadow,  

DLR